Погода в Раменках

Россия / Рязанская область     54°48′57″N   39°35′49″E
темп.,
°C
ветер,
м/с
пор.,
м/с
влажн.,
%
обл.,
%
осадки,
мм/ч
давл.,
гПа
погр.,
м
17 мая, пн
пн1700:00+14св228070 0.0 101411
03:00+13всв338513 0.0 101435
06:00+14в369048 0.7 1015170
09:00+20в58805 1.0 1014426
12:00+24вюв686652 0.0 1013815
15:00+26юв696697 0.0 10121280
18:00+23юв5117373 0.0 1012397
21:00+18вюв4138287 0.0 1012244
18 мая, вт
вт1800:00+16вюв4138692 0.0 1011229
03:00+15вюв414780 0.0 1011258
06:00+15вюв413775 0.0 1011278
09:00+20юв613685 0.0 1011501
12:00+24юв61061100 0.0 1011713
15:00+25юв611625 0.0 1010875
18:00+23вюв71567100 0.0 1009490
21:00+19вюв5167876 0.0 1009386
19 мая, ср
ср1900:00+18вюв61669100 0.0 1009400
03:00+15вюв4127539 0.0 1009223
06:00+15вюв5128130 0.0 1009272
09:00+20юв69672 0.0 1009483
12:00+23юв6859100 0.0 1008853
15:00+24юв6106596 0.0 10081274
18:00+22ююв497319 0.0 1008452
21:00+16юв81688100 1.7 1010539
20 мая, чт
чт2000:00+14юв3694100 0.8 1009137
03:00+15юв4109594 1.0 1008407
06:00+15вюв369599 0.1 1007251
09:00+17ююв368799 0.2 1006513
12:00+14ююз3895100 3.6 1008426
15:00+19ю7107341 4.3 10081494
18:00+17ююз711824 1.3 1009964
21:00+13ю411920 1.3 1010331
21 мая, пт
пт2100:00+12юз51190100 0.0 1012474
03:00+10юз5119397 0.0 1014401
06:00+11юз3108934 0.0 1016450
09:00+16юз47716 0.0 1017765
12:00+16юз5777100 0.1 1018752
15:00+18юз4670100 0.3 10181213
18:00+18ю357835 0.3 1017466
21:00+14ю3389100 0.3 101736